Location: Kikino
(54.4440°N, 112.0940°W)
Time: 00:10:36
(UTC+00:00)

Vanguard 3 - Pass Details

Date: 23 May 2024
Orbit: 509 x 3231 km, 33.3° (Epoch: 21 June)

Event Time Altitude Azimuth Distance (km) Brightness Sun altitude
Rises 07:56:18 0° 264° (W) 5,960 11.4 -14.6°
Reaches altitude 10° 08:01:57 10° 247° (WSW) 5,396 11.0 -14.4°
Maximum altitude 08:11:10 18° 213° (SSW) 5,272 10.7 -14.2°
Enters shadow 08:15:35 16° 198° (SSW) 5,541 10.7 -14.1°
